EN

Hourly Weather Bustamante

Today, 13 May, Thursday

Time Temperature Precipitation Wind Pressure Humidity
00:00 +20°C° 0 mm 1 mps 725 mmHg 88%
01:00 +19°C° 0 mm 1 mps 725 mmHg 88%
02:00 +19°C° 0 mm 1 mps 724 mmHg 88%
03:00 +19°C° 0 mm 1 mps 725 mmHg 89%
04:00 +19°C° 0 mm 1 mps 725 mmHg 89%
05:00 +19°C° 0 mm 1 mps 725 mmHg 89%
06:00 +20°C° 0 mm 1 mps 726 mmHg 89%
07:00 +19°C° 0 mm 2 mps 726 mmHg 89%
08:00 +19°C° 0 mm 2 mps 726 mmHg 88%
09:00 +19°C° 0 mm 2 mps 726 mmHg 86%
10:00 +19°C° 0 mm 2 mps 726 mmHg 84%
11:00 +21°C° 0 mm 1 mps 726 mmHg 82%
12:00 +22°C° 0 mm 1 mps 726 mmHg 78%
13:00 +22°C° 0 mm 1 mps 725 mmHg 74%
14:00 +23°C° 0 mm 1 mps 725 mmHg 70%
15:00 +23°C° 0 mm 2 mps 724 mmHg 68%
16:00 +24°C° 0 mm 2 mps 724 mmHg 66%
17:00 +24°C° 0 mm 2 mps 724 mmHg 65%
18:00 +24°C° 0 mm 2 mps 724 mmHg 67%
19:00 +23°C° 0 mm 2 mps 724 mmHg 70%
20:00 +23°C° 0 mm 2 mps 724 mmHg 72%
21:00 +23°C° 0 mm 2 mps 724 mmHg 72%
22:00 +23°C° 0 mm 1 mps 724 mmHg 72%
23:00 +23°C° 0 mm 1 mps 724 mmHg 73%

Tomorrow, 14 May, Friday

Time Temperature Precipitation Wind Pressure Humidity
00:00 +22°C° 0 mm 1 mps 724 mmHg 76%
01:00 +22°C° 0 mm 1 mps 723 mmHg 79%
02:00 +22°C° 0 mm 1 mps 723 mmHg 83%
03:00 +22°C° 0.2 mm 1 mps 723 mmHg 85%
04:00 +21°C° 0.2 mm 1 mps 723 mmHg 87%
05:00 +21°C° 0.2 mm 1 mps 723 mmHg 90%
06:00 +20°C° 0.2 mm 2 mps 723 mmHg 89%
07:00 +21°C° 0.2 mm 2 mps 723 mmHg 88%
08:00 +21°C° 0.2 mm 2 mps 724 mmHg 88%
09:00 +23°C° 0.1 mm 2 mps 723 mmHg 82%
10:00 +24°C° 0.1 mm 3 mps 723 mmHg 76%
11:00 +25°C° 0.1 mm 3 mps 723 mmHg 70%
12:00 +26°C° 0.1 mm 3 mps 723 mmHg 65%
13:00 +27°C° 0.1 mm 4 mps 722 mmHg 61%
14:00 +29°C° 0.1 mm 4 mps 721 mmHg 56%
15:00 +28°C° 0 mm 4 mps 721 mmHg 58%
16:00 +28°C° 0 mm 4 mps 721 mmHg 59%
17:00 +28°C° 0 mm 4 mps 721 mmHg 61%
18:00 +27°C° 0 mm 4 mps 721 mmHg 65%
19:00 +26°C° 0 mm 4 mps 721 mmHg 70%
20:00 +25°C° 0 mm 4 mps 721 mmHg 75%
21:00 +25°C° 0 mm 4 mps 721 mmHg 78%
22:00 +23°C° 0 mm 4 mps 721 mmHg 81%
23:00 +23°C° 0 mm 4 mps 721 mmHg 84%

Day after tomorrow, 15 May, Saturday

Time Temperature Precipitation Wind Pressure Humidity
00:00 +24°C° 0 mm 3 mps 720 mmHg 86%
01:00 +24°C° 0 mm 3 mps 720 mmHg 87%
02:00 +23°C° 0 mm 2 mps 720 mmHg 89%
03:00 +23°C° 0 mm 2 mps 720 mmHg 90%
04:00 +22°C° 0 mm 3 mps 720 mmHg 90%
05:00 +22°C° 0 mm 3 mps 720 mmHg 91%
06:00 +24°C° 0.1 mm 3 mps 720 mmHg 86%
07:00 +25°C° 0.1 mm 4 mps 721 mmHg 80%
08:00 +26°C° 0.1 mm 4 mps 721 mmHg 75%
09:00 +27°C° 0 mm 4 mps 721 mmHg 69%
10:00 +29°C° 0 mm 4 mps 720 mmHg 63%
11:00 +30°C° 0 mm 4 mps 720 mmHg 56%
12:00 +32°C° 0 mm 4 mps 719 mmHg 52%
13:00 +33°C° 0 mm 4 mps 719 mmHg 49%
14:00 +34°C° 0 mm 4 mps 718 mmHg 45%
15:00 +34°C° 0 mm 4 mps 718 mmHg 45%
16:00 +34°C° 0 mm 5 mps 717 mmHg 46%
17:00 +34°C° 0 mm 5 mps 717 mmHg 47%
18:00 +30°C° 2.5 mm 4 mps 718 mmHg 57%
19:00 +28°C° 2.5 mm 4 mps 718 mmHg 68%
20:00 +26°C° 2.5 mm 3 mps 719 mmHg 78%
21:00 +26°C° 1.2 mm 3 mps 719 mmHg 79%
22:00 +25°C° 1.2 mm 2 mps 718 mmHg 80%
23:00 +25°C° 1.2 mm 2 mps 718 mmHg 80%

16 May, Sunday

Time Temperature Precipitation Wind Pressure Humidity
00:00 +25°C° 0 mm 2 mps 718 mmHg 83%
01:00 +25°C° 0 mm 2 mps 717 mmHg 85%
02:00 +24°C° 0 mm 2 mps 717 mmHg 87%
03:00 +24°C° 0 mm 2 mps 717 mmHg 88%
04:00 +24°C° 0 mm 1 mps 718 mmHg 88%
05:00 +24°C° 0 mm 1 mps 718 mmHg 89%
06:00 +25°C° 0 mm 1 mps 718 mmHg 83%
07:00 +26°C° 0 mm 1 mps 718 mmHg 78%
08:00 +27°C° 0 mm 1 mps 719 mmHg 72%
09:00 +29°C° 0 mm 1 mps 718 mmHg 64%
10:00 +31°C° 0 mm 1 mps 718 mmHg 55%
11:00 +33°C° 0 mm 1 mps 718 mmHg 47%
12:00 +34°C° 0 mm 1 mps 717 mmHg 44%
13:00 +36°C° 0 mm 2 mps 717 mmHg 41%
14:00 +37°C° 0 mm 2 mps 716 mmHg 38%
15:00 +36°C° 0.1 mm 3 mps 716 mmHg 41%
16:00 +35°C° 0.1 mm 4 mps 716 mmHg 45%
17:00 +34°C° 0.1 mm 4 mps 716 mmHg 48%
18:00 +33°C° 0.3 mm 4 mps 716 mmHg 52%
19:00 +31°C° 0.3 mm 3 mps 716 mmHg 57%
20:00 +29°C° 0.3 mm 3 mps 716 mmHg 61%
21:00 +29°C° 0 mm 2 mps 716 mmHg 62%
22:00 +28°C° 0 mm 2 mps 716 mmHg 63%
23:00 +28°C° 0 mm 1 mps 716 mmHg 65%

17 May, Monday

Time Temperature Precipitation Wind Pressure Humidity
00:00 +27°C° 0 mm 1 mps 716 mmHg 68%
01:00 +27°C° 0 mm 1 mps 716 mmHg 71%
02:00 +26°C° 0 mm 2 mps 716 mmHg 74%
03:00 +26°C° 0 mm 1 mps 716 mmHg 77%
04:00 +25°C° 0 mm 1 mps 717 mmHg 81%
05:00 +25°C° 0 mm 1 mps 717 mmHg 84%
06:00 +26°C° 0 mm 1 mps 717 mmHg 78%
07:00 +27°C° 0 mm 1 mps 717 mmHg 71%
08:00 +29°C° 0 mm 1 mps 717 mmHg 64%
09:00 +30°C° 0 mm 1 mps 717 mmHg 56%
10:00 +32°C° 0 mm 1 mps 717 mmHg 49%
11:00 +35°C° 0 mm 2 mps 717 mmHg 41%
12:00 +36°C° 0 mm 2 mps 716 mmHg 39%
13:00 +37°C° 0 mm 3 mps 715 mmHg 36%
14:00 +38°C° 0 mm 3 mps 715 mmHg 34%
15:00 +35°C° 1.4 mm 4 mps 715 mmHg 44%
16:00 +32°C° 1.4 mm 6 mps 715 mmHg 54%
17:00 +29°C° 1.4 mm 7 mps 716 mmHg 64%
18:00 +28°C° 0.9 mm 6 mps 715 mmHg 62%
19:00 +27°C° 0.9 mm 5 mps 715 mmHg 60%
20:00 +27°C° 0.9 mm 4 mps 715 mmHg 58%
21:00 +26°C° 0 mm 4 mps 715 mmHg 60%
22:00 +26°C° 0 mm 4 mps 715 mmHg 63%
23:00 +25°C° 0 mm 4 mps 715 mmHg 66%

18 May, Tuesday

Time Temperature Precipitation Wind Pressure Humidity
00:00 +25°C° 0 mm 3 mps 714 mmHg 67%
01:00 +25°C° 0 mm 2 mps 714 mmHg 68%
02:00 +25°C° 0 mm 1 mps 713 mmHg 69%
03:00 +25°C° 0 mm 1 mps 714 mmHg 69%
04:00 +25°C° 0 mm 1 mps 714 mmHg 69%
05:00 +25°C° 0 mm 1 mps 714 mmHg 69%
06:00 +27°C° 0 mm 1 mps 715 mmHg 63%
07:00 +29°C° 0 mm 2 mps 715 mmHg 56%
08:00 +30°C° 0 mm 2 mps 715 mmHg 50%
09:00 +32°C° 0 mm 2 mps 716 mmHg 44%
10:00 +35°C° 0 mm 2 mps 716 mmHg 38%
11:00 +37°C° 0 mm 2 mps 716 mmHg 31%
12:00 +38°C° 0 mm 2 mps 715 mmHg 29%
13:00 +39°C° 0 mm 3 mps 715 mmHg 26%
14:00 +39°C° 0 mm 3 mps 714 mmHg 23%
15:00 +39°C° 0 mm 3 mps 714 mmHg 23%
16:00 +39°C° 0 mm 3 mps 714 mmHg 23%
17:00 +39°C° 0 mm 3 mps 714 mmHg 24%
18:00 +37°C° 0 mm 3 mps 714 mmHg 30%
19:00 +35°C° 0 mm 3 mps 714 mmHg 36%
20:00 +33°C° 0 mm 3 mps 715 mmHg 43%
21:00 +31°C° 0 mm 3 mps 715 mmHg 48%
22:00 +30°C° 0 mm 3 mps 715 mmHg 53%
23:00 +29°C° 0 mm 3 mps 715 mmHg 57%
Show more

We Need Your Consent

Meteoprog and our Service Providers may store and access personal data such as cookies, device identifiers or other similar technologies on your device and process such data to personalise content and ads, as well as provide social media features and to analyse the traffic.

  • Store and/or access information on your device

    Cookies, device identifiers or other information can be stored or accessed on your device for the purposes indicated above.

  • Personalised ads and content, ad and content measurement, audience insights, and products development

    Ads and content can be personalised based on a profile. More data can be added to better personalise ads and content. Ad and content performance can be measured. Insights about the audience who saw the ads and content can be derived. Such data can be used to develop or improve user’s experience, systems and software.

By clicking ‘I Agree’ you will allow the use of indicated cookies, device identifiers, web beacons or other similar technologies. Your settings can be changed in the browser on your device.

For certain purposes, legitimate interests may be relied on, rather than consent. You can read more about this in our Privacy and Cookie Policy.